Location: Minneapolis
(44.9800°N, 93.2640°W)
Time: 20:15:41
(UTC-06:00)

Iridium 96 - Visible Passes

Search period start: 20 November 2014 00:00
Search period end: 30 November 2014 00:00
Orbit: 776 x 779 km, 86.4° (Epoch: 20 November)

Date Brightness Start Highest point End Pass type
(mag) Time Alt. Az. Time Alt. Az. Time Alt. Az.
20 Nov 8.6 05:39:16 10° NE 05:40:24 11° ENE 05:41:31 10° E visible
21 Nov 6.8 06:43:22 10° N 06:48:24 46° E 06:53:23 10° SSE visible
22 Nov 7.7 06:10:17 10° NNE 06:14:39 26° ENE 06:18:59 10° SE visible
23 Nov 8.3 05:37:45 10° NE 05:40:46 15° ENE 05:43:46 10° ESE visible
24 Nov 6.1 06:43:20 10° N 06:48:33 65° E 06:53:43 10° SSE visible
25 Nov 7.1 06:10:03 10° NNE 06:14:53 36° E 06:19:40 10° SSE visible
25 Nov 7.5 19:08:34 10° S 19:09:40 17° S 19:09:40 17° S visible
26 Nov 8.0 05:37:08 10° NNE 05:41:05 21° ENE 05:45:00 10° ESE visible
26 Nov 6.9 18:35:30 10° SSE 18:37:34 23° SE 18:37:34 23° SE visible
26 Nov 8.0 20:16:50 10° SW 20:18:08 16° WSW 20:18:08 16° WSW visible
27 Nov 8.5 05:05:06 10° NE 05:07:08 12° ENE 05:09:10 10° E visible
27 Nov 5.6 06:43:23 10° N 06:48:39 89° W 06:53:51 10° S visible
27 Nov 6.8 18:03:00 10° SE 18:05:33 20° ESE 18:05:33 20° ESE visible
27 Nov 6.7 19:42:26 10° SSW 19:46:07 38° WSW 19:46:07 38° WSW visible
28 Nov 6.5 06:09:57 10° N 06:15:03 51° E 06:20:07 10° SSE visible
28 Nov 7.1 17:31:31 10° ESE 17:33:37 13° ENE 17:33:37 13° ENE visible
28 Nov 5.5 19:08:35 10° S 19:13:47 81° W 19:14:12 74° NNW visible
28 Nov 8.5 20:54:18 10° W 20:54:47 10° WNW 20:54:47 10° WNW visible
29 Nov 7.5 05:36:47 10° NNE 05:41:20 29° ENE 05:45:51 10° SE visible
29 Nov 5.5 18:35:13 10° SSE 18:40:18 57° E 18:42:23 34° NNE visible
29 Nov 7.9 20:17:47 10° WSW 20:21:25 19° WNW 20:22:59 17° NW visible
